Regional Weather Roundup
Issued by NWS Boston, MA

Home | Current Version | Previous Version | Text Only | Print | Product List | Glossary On
Versions: 1 2 3 4 5 6 7 8 9 10 11 12 13 14 15 16 17 18 19 20 21 22 23 24 25 26 27 28 29 30 31 32 33 34 35 36 37 38 39 40 41 42 43 44 45 46 47 48 49 50
000
ASUS41 KBOX 281910
RWRBOX

REGIONAL WEATHER ROUNDUP
NATIONAL WEATHER SERVICE TAUNTON MA
300 PM EDT FRI AUG 28 2015

NOTE:  "FAIR" INDICATES FEW OR NO CLOUDS BELOW 12,000 FEET WITH NO
SIGNIFICANT WEATHER AND/OR OBSTRUCTIONS TO VISIBILITY.  THE FOLLOWING
OBSERVATION LOCATIONS DO NOT REPORT PRESENT WEATHER...PROVINCETOWN...
SMITHFIELD...BLOCK ISLAND...KEENE...AND OXFORD.

MAZALL-282000-
EASTERN MASSACHUSETTS

CITY           SKY/WX    TMP DP  RH WIND       PRES   REMARKS
BOSTON         MOSUNNY   74  57  55 E10       30.12F
BEVERLY        MOSUNNY   73  55  53 SE8       30.11F
LAWRENCE       PTSUNNY   79  52  38 CALM      30.13F
BEDFORD        PTSUNNY   77  51  40 N8        30.10F
BLUE HILL        N/A     76  54  46 W7        30.12F
NORWOOD        PTSUNNY   79  56  45 W8        30.11F
MARSHFIELD     SUNNY     73  57  56 NE7       30.14F
PLYMOUTH       MOSUNNY   76  60  57 NE10      30.13S
TAUNTON        PTSUNNY   80  55  42 CALM      30.11F
NEW BEDFORD    MOSUNNY   80  55  42 VRB6      30.11F
$$

MAZALL-282000-
CAPE COD AND THE ISLANDS

CITY           SKY/WX    TMP DP  RH WIND       PRES   REMARKS
FALMOUTH       PTSUNNY   75  59  57 VRB7      30.13S
HYANNIS        SUNNY     77  57  50 N6        30.12S
CHATHAM        MOSUNNY   71  60  68 VRB6      30.14S
PROVINCETOWN   SUNNY     72  59  64 N6        30.14F
NANTUCKET      MOSUNNY   76  56  49 VRB7      30.13S
MARTHAS VNYRD  SUNNY     78  55  44 W9        30.13S
$$

MAZALL-282000-
CENTRAL AND WESTERN MASSACHUSETTS

CITY           SKY/WX    TMP DP  RH WIND       PRES   REMARKS
WORCESTER      CLOUDY    73  53  49 W8        30.16F
FITCHBURG      MOSUNNY   78  54  43 NW12      30.13F
ORANGE         SUNNY     76  50  40 NW8       30.14F
SPRINGFIELD    MOSUNNY   78  53  41 VRB3      30.13F
WESTFIELD      PTSUNNY   80  54  40 MISG      30.14F
NORTH ADAMS    MOSUNNY   74  55  51 VRB7      30.16F
PITTSFIELD     CLOUDY    69  55  60 NW5       30.17F
$$

RIZALL-282000-
RHODE ISLAND

CITY           SKY/WX    TMP DP  RH WIND       PRES   REMARKS
PROVIDENCE     CLOUDY    78  52  40 NW6       30.13F
NEWPORT        SUNNY     77  59  53 MISG      30.13F
BLOCK ISLAND   SUNNY     75  54  46 SW10      30.15F
SMITHFIELD     PTSUNNY   79  54  41 NW8G17    30.13F
WESTERLY       SUNNY     77  52  41 W9        30.14F
$$

CTZALL-282000-
CONNECTICUT

CITY           SKY/WX    TMP DP  RH WIND       PRES   REMARKS
BRADLEY INTL   PTSUNNY   78  53  41 NW8       30.13F
HARTFORD       MOSUNNY   79  54  41 N8        30.13F
BRIDGEPORT     SUNNY     77  54  44 SW12      30.15S
DANBURY        MOSUNNY   76  52  43 W6        30.17F
GROTON         MOSUNNY   75  60  59 SW12      30.13F
NEW HAVEN      SUNNY     76  57  51 S8        30.15F
CHESTER        NOT AVBL
MERIDEN        MOSUNNY   79  52  38 W6        30.14F
WILLIMANTIC    MOSUNNY   78  53  41 W8        30.13F
OXFORD         PTSUNNY   75  54  46 NW8       30.19F
$$

MEZ002-015-021-024-NHZ003-005-008-011-012-014-VTZ005-008-282000-
NORTHERN NEW ENGLAND

CITY           SKY/WX    TMP DP  RH WIND       PRES   REMARKS
PORTLAND ME    MOSUNNY   75  60  59 S12       30.10F
BANGOR ME      MOSUNNY   75  54  47 SW8       30.08S
CONCORD NH     MOSUNNY   79  52  38 W10       30.12F
MANCHESTER NH  PTSUNNY   78  51  38 VRB7      30.11F
NASHUA NH      PTSUNNY   78  54  43 W6        30.12F
PORTSMOUTH NH  MOSUNNY   76  57  52 W2        30.09F
JAFFREY NH     PTSUNNY   74  50  42 CALM      30.16F
KEENE NH       MOSUNNY   73  52  46 W6        30.15S
BURLINGTON VT  MOSUNNY   78  54  43 N6        30.14F
MT. WASHINGTON PTSUNNY   50  46  87 W3          N/A  VSB 1/4
$$

NYZ052-076-282000-
EASTERN NEW YORK

CITY           SKY/WX    TMP DP  RH WIND       PRES   REMARKS
ALBANY         PTSUNNY   75  52  44 VRB3      30.15F
NEW YORK CITY  MOSUNNY   79  49  34 NW5       30.14F
$$

ANZALL-282000-
MARINE OBSERVATIONS

STATION/POSITION TIME  TEMP    WIND        PRES    VSBY  WAVE
                       AIR SEA DIR/SP/G                  HT/PER
                 (UTC) (F)     (DEG/KT/KT) (MB)    (MI)  (FT/S)
BOSTON BUOY      1850   69 71  120/  4/  6 1020.7F         3/11
BUZZARDS BAY     1800          220/ 10/ 11 1021.3F
NANTUCKET SOUND  1850   72 75  290/  4/  4 1020.1F         1/11
MASS BAY-STELLWA 1804   70 70  130/  2/  4   N/A    1 7/8  3/11
ISLE OF SHOALS   1900   69     160/ 12/ 12 1019.3F
S OF BLOCK IS    1808      76                N/A           3/11
$$

......................KEY.........................
  SKY/WX - SKY CONDITION/PRESENT WEATHER
  TMP    - TEMPERATURE IN FAHRENHEIT
  DWPT   - DEWPOINT IN FAHRENHEIT
  RH     - RELATIVE HUMIDITY IN PERCENT
  WIND   - DIRECTION AND SPEED IN MPH
  PRES   - MEAN SEA LEVEL PRESSURE IN INCHES OF HG
  WCI    - WIND CHILL INDEX
  VSB    - VISIBILITY IN MILES
  HX     - HEAT INDEX
  TC     - TEMPERATURE IN CELSIUS
  VRB    - VARIABLE WIND DIRECTION
  N/A    - NOT AVAILABLE



USA.gov is the U.S. government's official web portal to all federal, state and local government web resources and services.